This demonstration page uses our WeatherBlox Daily Observations layout. Learn more.

41.55636, -103.73856

Hourly Observations for March 24, 2015

Temp ( °F °C ) Dew Point ( °F °C ) Humidity (%) Winds ( mph kmh ) Pressure ( in mb ) Visibility ( mi km ) Precip ( " mm )
12:53 am 00:53 Clear 43 6.1 38 3.3 82 82 SSE 8 13 29.78 1009 10 16.0934 0 0
1:53 am 01:53 Clear 40 4.4 37 2.8 89 89 E 6 9 29.78 1008 10 16.0934 0 0
2:53 am 02:53 Clear 43 6.1 34 1.1 71 71 W 10 17 29.77 1008 10 16.0934 0 0
3:53 am 03:53 Clear 43 6.1 30 -1.1 60 60 W 10 17 29.78 1008 10 16.0934 0 0
4:53 am 04:53 Clear 42 5.6 29 -1.7 60 60 W 14 22 29.82 1010 10 16.0934 0 0
5:53 am 05:53 Clear 43 6.1 30 -1.1 60 60 W 15 24 29.83 1010 10 16.0934 0 0
6:53 am 06:53 Sunny 37 2.8 30 -1.1 76 76 WNW 8 13 29.86 1011 10 16.0934 0 0
7:53 am 07:53 Sunny 42 5.6 31 -0.6 65 65 W 10 17 29.88 1012 10 16.0934 0 0
8:53 am 08:53 Sunny 47 8.3 31 -0.6 54 54 W 14 22 29.88 1012 10 16.0934 0 0
9:53 am 09:53 Sunny 50 10 27 -2.8 41 41 WNW 20 31 29.87 1012 10 16.0934 0 0
10:53 am 10:53 Sunny 53 11.7 27 -2.8 37 37 W 15 24 29.86 1011 10 16.0934 0 0
11:53 am 11:53 Sunny 55 12.8 23 -5 29 29 W 14 22 29.84 1011 10 16.0934 0 0
12:53 pm 12:53 Sunny 57 13.9 22 -5.6 26 26 W 20 31 29.83 1010 10 16.0934 0 0
1:53 pm 13:53 Sunny 60 15.6 19 -7.2 20 20 W 25 41 29.81 1009 10 16.0934 0 0
2:53 pm 14:53 Sunny 57 13.9 18 -7.8 22 22 W 23 37 29.8 1009 10 16.0934 0 0
3:53 pm 15:53 Sunny 56 13.3 19 -7.2 24 24 W 25 41 29.81 1010 10 16.0934 0 0
4:53 pm 16:53 Sunny 53 11.7 25 -3.9 34 34 W 26 43 29.83 1010 10 16.0934 0 0
5:53 pm 17:53 Sunny 53 11.7 27 -2.8 37 37 WNW 20 31 29.83 1010 10 16.0934 0 0
6:53 pm 18:53 Cloudy 51 10.6 29 -1.7 43 43 WNW 20 31 29.85 1011 10 16.0934 0 0
7:53 pm 19:53 Cloudy 50 10 31 -0.6 48 48 WNW 14 22 29.86 1011 10 16.0934 0 0
8:53 pm 20:53 Cloudy 49 9.4 33 0.6 55 55 WNW 16 26 29.88 1012 10 16.0934 0 0
9:53 pm 21:53 Cloudy 45 7.2 33 0.6 63 63 W 5 7 29.88 1012 10 16.0934 0 0
10:53 pm 22:53 Cloudy 44 6.7 33 0.6 65 65 W 8 13 29.9 1013 10 16.0934 0 0
11:53 pm 23:53 Cloudy 45 7.2 33 0.6 63 63 W 10 17 29.9 1012 10 16.0934 0 0

Powered by AerisWeather